Location: Unspecified
(41.5516°N, 88.1098°W)
Time: 10:28:06
(UTC-05:00)

Cosmos 2058 - Visible Passes

Search period start: 16 September 2014 00:00
Search period end: 26 September 2014 00:00
Orbit: 569 x 595 km, 82.5° (Epoch: 15 September)

Date Brightness Start Highest point End Pass type
(mag) Time Alt. Az. Time Alt. Az. Time Alt. Az.
16 Sep 4.8 20:21:54 10° NNE 20:23:42 16° NE 20:23:42 16° NE visible
16 Sep 5.0 21:58:01 10° NNW 22:00:06 25° NW 22:00:06 25° NW visible
17 Sep 4.4 20:27:09 10° NNE 20:29:40 22° NE 20:29:40 22° NE visible
17 Sep 5.3 22:04:02 10° NNW 22:06:04 21° WNW 22:06:04 21° WNW visible
18 Sep 3.9 20:32:34 10° NNE 20:35:40 30° ENE 20:35:40 30° ENE visible
18 Sep 5.6 22:10:13 10° NW 22:12:04 17° WNW 22:12:04 17° WNW visible
19 Sep 3.3 20:38:06 10° N 20:41:43 44° ENE 20:41:43 44° ENE visible
19 Sep 5.9 22:16:42 10° NW 22:18:07 13° WNW 22:18:07 13° WNW visible
20 Sep 2.8 20:43:44 10° N 20:47:48 66° ENE 20:47:48 66° ENE visible
21 Sep 2.8 20:49:26 10° N 20:53:38 85° W 20:53:57 75° S visible
22 Sep 4.9 19:20:28 10° NE 19:21:50 11° ENE 19:23:13 10° E visible
22 Sep 3.4 20:55:13 10° NNW 20:59:20 59° W 21:00:10 48° SW visible
23 Sep 4.6 19:25:08 10° NNE 19:27:43 16° ENE 19:30:03 11° ESE visible
23 Sep 4.1 21:01:05 10° NNW 21:05:00 40° W 21:06:29 29° SW visible
24 Sep 4.2 19:30:18 10° NNE 19:33:34 22° ENE 19:36:29 12° ESE visible
24 Sep 4.8 21:07:03 10° NNW 21:10:39 29° W 21:12:54 18° SW visible
25 Sep 3.8 19:35:40 10° NNE 19:39:23 30° ENE 19:43:03 10° SE visible
25 Sep 5.4 21:13:09 10° NW 21:16:16 21° W 21:19:24 10° SW visible
